[[{"header":{"parameterUnit":"m.s-1","parameterCategory":1,"la1":30.2991,"la2":30.254,"lo1":-89.0895,"lo2":-89.0444,"dy":0.0017,"dx":0.0017,"nx":28,"ny":28,"refTime":"2025-04-08T03:00:00:Z","depth":0,"parameterNumber":2,"parameterNumberName":"U-component_of_WINDS"},"data":[0,0,0,0,0,0,0,0,0,0,0,0,0,0,0,0,0,0,0,0,0,0,0,0,0,0,0,0,0,0,0,0,0,0,0,0,0,0,0,0,0,0,0,0,0,0,0,0,0,0,0,0,0,0,0,0,0,0,0.3406,0.3407,0,0.349,0.3491,0.3492,0.3527,0.3527,0.3526,0.3526,0.3614,0.3616,0.3619,0,0,0,0,0,0,0,0,0,0,0,0,0,0.3274,0.3276,0.3406,0.3407,0.3408,0.349,0.3491,0.3492,0.3527,0.3527,0.3526,0.3526,0.3613,0.3616,0.3619,0,0,0,0,0,0,0,0,0,0,0,0,0,0.3342,0.3277,0.3405,0.3435,0.3438,0.349,0.3491,0.3493,0.3527,0.3527,0.3526,0.3526,0.3612,0.3616,0.362,0.3648,0,0,0.3631,0.3633,0,0,0,0,0,0,0,0,0.3338,0.3347,0.3429,0.3433,0.3437,0.3498,0.3477,0.3545,0.3527,0.3493,0.3526,0.3526,0.3576,0.3582,0.3599,0.3653,0.3656,0.3631,0.3634,0.3635,0.3636,0,0,0,0,0,0,0,0.3333,0.3343,0.3439,0.3431,0.3435,0.3444,0.3453,0.349,0.3535,0.3496,0.3499,0.3508,0.3578,0.3595,0.3601,0.3658,0.3631,0.3635,0.3637,0.3638,0.3737,0.3738,0,0,0,0,0,0,0.3324,0.3339,0.3436,0.3442,0.3386,0.3446,0.3457,0.3478,0.3535,0.3543,0.3508,0.351,0.3589,0.3597,0.3604,0.3641,0.3635,0.3639,0.3641,0.3737,0.3737,0.3738,0,0,0,0,0,0,0.3321,0.3332,0.3433,0.3391,0.3405,0.3449,0.3473,0.348,0.3498,0.3544,0.3552,0.3518,0.3589,0.3599,0.3637,0.3644,0.364,0.3644,0.3737,0.3737,0.3738,0.3715,0,0,0,0,0,0,0.3317,0.3331,0.3342,0.3391,0.3407,0.3464,0.3473,0.3482,0.3504,0.3506,0.3555,0.3563,0.3589,0.3631,0.364,0.365,0.3647,0.3736,0.3737,0.3737,0.3715,0.3714,0.3714,0,0,0,0,0,0.3312,0.3333,0.3343,0.3354,0.3422,0.3464,0.3473,0.3503,0.3505,0.3516,0.3546,0.3562,0.3642,0.3634,0.3646,0.3656,0.3736,0.3737,0.3737,0.3715,0.3714,0.3714,0,0,0,0,0,0,0.3285,0.334,0.3352,0.3389,0.3422,0.347,0.3486,0.3501,0.3535,0.3535,0.3571,0.3582,0.3616,0.364,0.3631,0.3686,0.369,0.3693,0.3669,0.3669,0.3668,0.3662,0.365,0,0,0,0,0,0.3283,0.3313,0.336,0.3388,0.3404,0.3442,0.3462,0.3481,0.3517,0.3531,0.3563,0.3597,0.3629,0.3651,0.3683,0.3718,0.3729,0.3731,0.373,0.3729,0.3732,0.3751,0.3752,0.3741,0.3741,0.3741,0,0,0.3281,0.3314,0.3331,0.3384,0.3411,0.3441,0.3453,0.3485,0.3507,0.3536,0.3573,0.3597,0.3637,0.3673,0.3691,0.3694,0.3737,0.373,0.3729,0.3732,0.3752,0.3753,0.3753,0.3741,0.3741,0.3741,0,0,0.329,0.3319,0.3346,0.3372,0.3413,0.3438,0.3444,0.349,0.3507,0.3545,0.3567,0.3594,0.365,0.3677,0.3698,0.3715,0.3731,0.3725,0.3723,0.3741,0.3741,0.3742,0.3748,0.375,0.3727,0.3727,0.3727,0,0.3282,0.3327,0.3357,0.3387,0.3409,0.3435,0.3462,0.3486,0.3536,0.3551,0.3553,0.3623,0.3652,0.3694,0.3698,0.3714,0.3722,0.372,0.3739,0.374,0.3741,0.3747,0.3749,0.3726,0.3726,0.3726,0.3727,0,0.3314,0.3345,0.3361,0.3408,0.3432,0.346,0.3493,0.3514,0.3531,0.3555,0.3592,0.3628,0.3667,0.3679,0.3696,0.3723,0.3723,0.3732,0.3737,0.3741,0.3747,0.3749,0.3725,0.3725,0.3725,0.3726,0,0,0.3311,0.3372,0.3378,0.3398,0.3444,0.3469,0.3497,0.3535,0.3552,0.3585,0.3609,0.3655,0.3663,0.3686,0.3707,0.3723,0.3733,0.3729,0.3731,0.3729,0.3764,0.3757,0.3759,0.3743,0.3744,0.3744,0.376,0,0.3327,0.3379,0.3405,0.3446,0.3474,0.3499,0.3523,0.3554,0.3577,0.3604,0.363,0.3661,0.3669,0.3684,0.37,0.3728,0.3741,0.3728,0.3766,0.3767,0.3756,0.3762,0.3756,0.3769,0.3763,0.3763,0.3763,0,0.3352,0.3384,0.3427,0.3468,0.3481,0.3503,0.3539,0.3565,0.36,0.3615,0.3641,0.366,0.3691,0.3693,0.3735,0.3725,0.3742,0.3758,0.3759,0.3764,0.3766,0.3767,0.3774,0.3776,0.3768,0.3767,0.3767,0,0.3345,0.3398,0.343,0.3447,0.3497,0.3511,0.3532,0.3567,0.3588,0.3619,0.3633,0.3667,0.3687,0.3713,0.3741,0.374,0.378,0.3785,0.3794,0.3793,0.3802,0.3801,0.3811,0.3812,0.3812,0.3812,0.3812,0,0.3359,0.3385,0.3427,0.3447,0.3475,0.3506,0.3533,0.3556,0.3586,0.3611,0.3634,0.3657,0.3693,0.3719,0.3742,0.3772,0.3781,0.3794,0.38,0.3792,0.3791,0.3805,0.3804,0.3813,0.3813,0.3813,0.3812,0,0.3356,0.3386,0.3422,0.3465,0.3477,0.3496,0.3533,0.3553,0.3576,0.3607,0.3615,0.3652,0.3685,0.3715,0.3759,0.3774,0.3805,0.3813,0.3793,0.3796,0.3803,0.3802,0.3823,0.3827,0.3826,0.3825,0.3825,0,0.3364,0.3383,0.3428,0.3446,0.3466,0.3495,0.3516,0.3546,0.3566,0.3606,0.3621,0.3655,0.3684,0.3735,0.3766,0.3799,0.3807,0.3812,0.3812,0.3804,0.3807,0.3805,0.3807,0.3812,0.3812,0.3811,0.3811,0,0.3373,0.3387,0.3416,0.3449,0.3473,0.3501,0.353,0.3543,0.3578,0.36,0.3633,0.3655,0.3699,0.3733,0.3769,0.3791,0.3807,0.3811,0.3815,0.3807,0.3795,0.3801,0.3791,0.381,0.3811,0.3811,0.3811,0.3811,0.3376,0.3394,0.3428,0.3459,0.3483,0.3509,0.353,0.3555,0.3583,0.3621,0.3636,0.367,0.3703,0.3753,0.3775,0.3801,0.3805,0.381,0.3812,0.3813,0.3811,0.379,0.3808,0.3808,0.3808,0.3808,0.3808,0,0.3386,0.3409,0.3437,0.3476,0.35,0.3512,0.3544,0.3564,0.3592,0.3622,0.3649,0.3687,0.3719,0.3751,0.3785,0.3799,0.3808,0.3807,0.3807,0.3811,0.3806,0.3799,0.38,0.38,0.38,0.38,0.38,0.38,0.3395,0.3426,0.3443,0.3486,0.3508,0.3541,0.3558,0.3582,0.3605,0.3646,0.3672,0.3693,0.3723,0.3759,0.3789,0.3797,0.3809,0.3806,0.3817,0.3811,0.3812,0.3812,0.3806,0.3808,0.3808,0.382,0.382,0.382]},{"header":{"parameterUnit":"m.s-1","parameterCategory":1,"la1":30.2991,"la2":30.254,"lo1":-89.0895,"lo2":-89.0444,"dy":0.0017,"dx":0.0017,"nx":28,"ny":28,"refTime":"2025-04-08T03:00:00:Z","depth":0,"parameterNumber":3,"parameterNumberName":"V-component_of_WINDS"},"data":[0,0,0,0,0,0,0,0,0,0,0,0,0,0,0,0,0,0,0,0,0,0,0,0,0,0,0,0,0,0,0,0,0,0,0,0,0,0,0,0,0,0,0,0,0,0,0,0,0,0,0,0,0,0,0,0,0,0,2.999,2.9989,0,2.992,2.992,2.9919,2.9879,2.9879,2.9879,2.9879,2.9804,2.9802,2.9801,0,0,0,0,0,0,0,0,0,0,0,0,0,3.0084,3.0083,2.999,2.9989,2.9988,2.9921,2.992,2.9919,2.9879,2.9879,2.9879,2.9879,2.9805,2.9803,2.98,0,0,0,0,0,0,0,0,0,0,0,0,0,3.0032,3.0082,2.999,2.9961,2.9957,2.9921,2.992,2.9918,2.9879,2.9879,2.9879,2.9879,2.9806,2.9803,2.98,2.9787,0,0,2.9792,2.979,0,0,0,0,0,0,0,0,3.0035,3.0028,2.9966,2.9963,2.9959,2.9908,2.9925,2.9874,2.9879,2.9909,2.9879,2.9879,2.9839,2.9833,2.9821,2.9783,2.978,2.9791,2.979,2.9788,2.9788,0,0,0,0,0,0,0,3.0039,3.0031,2.9962,2.9965,2.9961,2.9949,2.9942,2.9915,2.9876,2.9906,2.9903,2.9896,2.9837,2.9823,2.9819,2.9779,2.9791,2.9789,2.9787,2.9786,2.9723,2.9723,0,0,0,0,0,0,3.0047,3.0034,2.9965,2.996,2.9997,2.9948,2.9939,2.9925,2.9876,2.9868,2.9896,2.9894,2.9828,2.9822,2.9816,2.9794,2.9788,2.9786,2.9784,2.9723,2.9723,2.9723,0,0,0,0,0,0,3.005,3.0042,2.9968,2.9997,2.9986,2.9946,2.993,2.9923,2.991,2.9868,2.986,2.989,2.9828,2.982,2.9794,2.9791,2.9785,2.9782,2.9723,2.9723,2.9723,2.9753,0,0,0,0,0,0,3.0053,3.0043,3.0039,2.9997,2.9985,2.9948,2.993,2.9922,2.9906,2.9903,2.986,2.9853,2.9827,2.9798,2.9791,2.9787,2.978,2.9723,2.9723,2.9723,2.9752,2.9754,2.9756,0,0,0,0,0,3.0056,3.005,3.0039,3.003,2.9979,2.9948,2.9941,2.9913,2.9906,2.99,2.9873,2.9854,2.9793,2.9796,2.9787,2.9783,2.9723,2.9723,2.9723,2.9751,2.9754,2.9756,0,0,0,0,0,0,3.0092,3.0044,3.0031,3.0011,2.9984,2.9942,2.9934,2.9917,2.989,2.9888,2.9852,2.9843,2.982,2.9799,2.9803,2.9765,2.9756,2.9754,2.978,2.9782,2.9784,2.9789,2.9778,0,0,0,0,0,3.0098,3.0078,3.0037,3.0023,3.001,2.9975,2.996,2.994,2.991,2.9898,2.9869,2.9839,2.9813,2.9797,2.977,2.9749,2.9738,2.9741,2.9743,2.9745,2.9744,2.9728,2.9728,2.9723,2.9723,2.9723,0,0,3.0109,3.0081,3.007,3.003,3.0006,2.9985,2.9965,2.9944,2.9927,2.9895,2.9868,2.9845,2.981,2.9785,2.9773,2.9767,2.9743,2.9745,2.9747,2.9744,2.9728,2.9729,2.9729,2.9723,2.9723,2.9723,0,0,3.0119,3.0096,3.0082,3.0058,3.0023,2.9999,2.9995,2.9955,2.9939,2.9911,2.9886,2.9864,2.982,2.9795,2.9777,2.9774,2.9755,2.9766,2.9776,2.9761,2.9761,2.9761,2.9758,2.9758,2.9765,2.9765,2.9765,0,3.0137,3.0106,3.0076,3.0055,3.0037,3.0007,2.999,2.9969,2.9926,2.9914,2.9908,2.985,2.9824,2.9792,2.9791,2.9778,2.977,2.9771,2.9764,2.9764,2.9763,2.976,2.9759,2.9767,2.9767,2.9766,2.9766,0,3.0129,3.0107,3.0099,3.0059,3.004,3.0021,2.9987,2.997,2.9951,2.9927,2.9898,2.9866,2.9831,2.9822,2.9803,2.9786,2.9783,2.9771,2.976,2.9766,2.9762,2.976,2.9769,2.9768,2.9768,2.9767,0,0,3.016,3.0103,3.01,3.0081,3.0038,3.002,2.9999,2.9966,2.9951,2.9922,2.9902,2.9864,2.9852,2.9831,2.9809,2.9796,2.9793,2.9785,2.9783,2.9786,2.9769,2.9777,2.9777,2.978,2.978,2.978,2.9771,0,3.0162,3.0125,3.0096,3.0068,3.0046,3.0016,2.9997,2.9968,2.9944,2.992,2.9893,2.9866,2.9854,2.984,2.9826,2.9796,2.9789,2.9797,2.9759,2.9758,2.9768,2.9775,2.9784,2.9778,2.977,2.9769,2.9769,0,3.016,3.0133,3.0103,3.0061,3.0051,3.0035,3.0,2.9979,2.9944,2.9927,2.9902,2.9879,2.9853,2.9845,2.9807,2.9813,2.9795,2.9778,2.9777,2.9771,2.9763,2.9768,2.9776,2.9774,2.9767,2.9767,2.9767,0,3.0184,3.0139,3.0115,3.0099,3.005,3.0039,3.0018,2.9983,2.9964,2.9933,2.992,2.9886,2.9868,2.9841,2.9808,2.9806,2.9772,2.9762,2.9756,2.9757,2.975,2.9751,2.9754,2.9741,2.9741,2.9741,2.9741,0,3.0189,3.0171,3.0124,3.011,3.0088,3.0054,3.0033,3.0009,2.9978,2.9956,2.9927,2.9907,2.9866,2.9839,2.9813,2.9784,2.9776,2.976,2.9753,2.9762,2.9764,2.975,2.9749,2.9741,2.9741,2.9741,2.9741,0,3.0211,3.0179,3.0151,3.0106,3.0095,3.008,3.0041,3.0024,2.9998,2.9971,2.9962,2.9921,2.9888,2.9853,2.9808,2.9791,2.9762,2.9753,2.9774,2.977,2.9765,2.9765,2.9758,2.9754,2.9746,2.9746,2.9746,0,3.0216,3.0202,3.0155,3.0139,3.0119,3.0093,3.0073,3.0039,3.0019,2.9977,2.9964,2.9929,2.99,2.9849,2.9813,2.9778,2.9767,2.9767,2.9762,2.977,2.9765,2.9766,2.9763,2.9768,2.9769,2.9769,2.9769,0,3.0227,3.0211,3.0185,3.0152,3.0129,3.0102,3.0072,3.006,3.0019,2.9998,2.9965,2.9942,2.9896,2.9861,2.9821,2.9796,2.9775,2.9771,2.9767,2.9776,2.9788,2.9779,2.9777,2.9771,2.9771,2.9771,2.9771,2.9771,3.0239,3.0224,3.0189,3.0159,3.0134,3.0107,3.0088,3.006,3.0032,2.9992,2.9973,2.9939,2.9901,2.9846,2.9822,2.9793,2.9787,2.9782,2.9781,2.978,2.9781,2.9793,2.9786,2.9786,2.9786,2.9786,2.9786,0,3.0247,3.0223,3.0196,3.0156,3.0132,3.0115,3.0082,3.0062,3.0033,3.0001,2.9972,2.9932,2.9897,2.9859,2.9821,2.9805,2.9794,2.9796,2.9797,2.9791,2.979,2.9796,2.9806,2.9806,2.9806,2.9806,2.9806,2.9806,3.0248,3.0222,3.0202,3.0161,3.0136,3.0103,3.0085,3.0059,3.0033,2.999,2.9962,2.9937,2.9901,2.986,2.9826,2.9816,2.9802,2.9807,2.9793,2.9793,2.9791,2.979,2.9795,2.9805,2.9805,2.9796,2.9796,2.9796]}]]